EW6434 Weather Reports


time (UTC)temp
C
wind
direction
speed
KPH
gust
KPH
rain 1hr
cm
rain 24hr
cm
rain mn
cm
humidity
%
barometer
mb
20260508063030 0 75 0.0 0.0 0.00 0.00 0.00 69 1016.8
20260508061529 1 75 0.0 3.2 0.00 0.00 0.00 69 1016.8
20260508054524 1 252 0.0 0.0 0.00 0.00 0.00 66 1016.8
20260508053028 1 252 0.0 0.0 0.00 0.00 0.00 65 1016.9
20260508051524 1 252 0.0 0.0 0.00 0.00 0.00 66 1016.9
20260508050026 2 255 0.0 0.0 0.00 0.00 0.00 64 1016.8
20260508044523 2 255 0.0 0.0 0.00 0.00 0.00 63 1016.9
20260508043022 3 255 0.0 0.0 0.00 0.00 0.00 60 1017.0
20260508041521 3 255 0.0 0.0 0.00 0.00 0.00 59 1017.0
20260508040024 4 255 0.0 1.6 0.00 0.00 0.00 56 1017.0
20260508034523 5 276 0.0 3.2 0.00 0.00 0.00 56 1017.0
20260508033023 5 250 0.0 0.0 0.00 0.00 0.00 53 1017.0
20260508031526 6 34 0.0 0.0 0.00 0.00 0.00 49 1016.8
20260508030019 6 266 0.0 0.0 0.00 0.00 0.00 46 1016.8
20260508024518 7 274 0.0 0.0 0.00 0.00 0.00 44 1016.5
20260508023026 8 102 0.0 1.6 0.00 0.00 0.00 40 1016.3
20260508021517 8 134 0.0 4.8 0.00 0.00 0.00 39 1016.2
20260508020016 9 148 0.0 4.8 0.00 0.00 0.00 40 1016.3
20260508014533 10 135 0.0 1.6 0.00 0.00 0.00 38 1016.3
20260508013015 10 191 0.0 4.8 0.00 0.00 0.00 37 1016.2
20260508011518 11 176 0.0 8.0 0.00 0.00 0.00 35 1016.1
20260508010023 12 147 0.0 8.0 0.00 0.00 0.00 30 1016.0
20260508004520 13 146 3.2 12.9 0.00 0.00 0.00 28 1016.1
20260508003033 14 236 3.2 11.3 0.00 0.00 0.00 27 1016.3
20260508001509 15 153 4.8 11.3 0.00 0.00 0.00 25 1016.3
20260508000009 15 190 3.2 9.7 0.00 0.00 0.00 26 1016.5
20260507234506 15 213 3.2 9.7 0.00 0.00 0.00 25 1016.6
20260507233006 14 169 3.2 8.0 0.00 0.00 0.00 27 1016.8
20260507231504 16 235 4.8 12.9 0.00 0.00 0.00 25 1016.8
20260507230004 15 190 1.6 12.9 0.00 0.00 0.00 26 1016.9
20260507224505 16 187 3.2 11.3 0.00 0.00 0.00 23 1017.1
20260507223001 16 212 3.2 12.9 0.00 0.00 0.00 22 1017.0
20260507221559 16 225 3.2 16.1 0.00 0.00 0.00 21 1017.2
20260507220058 15 252 1.6 12.9 0.00 0.00 0.00 22 1017.4
20260507214603 15 262 1.6 12.9 0.00 0.10 0.00 23 1017.6
20260507213054 15 136 3.2 11.3 0.00 0.10 0.00 22 1018.0
20260507211615 15 217 3.2 9.7 0.00 0.10 0.00 26 1018.3
20260507210053 15 221 4.8 9.7 0.00 0.10 0.00 24 1018.7
20260507204556 16 259 1.6 6.4 0.00 0.43 0.00 24 1018.9
20260507203044 15 217 3.2 12.9 0.00 0.43 0.00 24 1019.3
20260507201541 15 280 1.6 8.0 0.00 0.43 0.00 23 1019.6
20260507200039 15 217 3.2 12.9 0.00 0.43 0.00 25 1020.0
20260507194539 15 214 4.8 19.3 0.00 0.76 0.00 23 1020.2
20260507193036 14 166 3.2 11.3 0.00 0.76 0.00 22 1020.6
20260507191533 14 270 6.4 12.9 0.00 0.76 0.00 22 1020.8
20260507190035 14 268 0.0 6.4 0.00 0.76 0.00 22 1021.2
20260507184527 14 304 1.6 9.7 0.00 0.76 0.00 21 1021.4
20260507183027 13 158 1.6 8.0 0.00 0.76 0.00 22 1021.8
20260507181522 13 142 1.6 12.9 0.00 0.76 0.00 23 1021.9
20260507180021 13 162 1.6 9.7 0.00 0.76 0.00 25 1022.5
20260507174517 12 252 1.6 11.3 0.00 0.76 0.00 21 1022.6
20260507173016 12 221 0.0 8.0 0.00 0.76 0.00 22 1022.7
20260507171512 11 200 0.0 6.4 0.00 0.76 0.00 19 1023.1
20260507170009 11 205 0.0 4.8 0.00 0.76 0.00 22 1023.4
20260507164505 10 196 0.0 3.2 0.00 0.76 0.00 23 1023.7
20260507163003 9 269 0.0 4.8 0.00 0.76 0.00 18 1024.0
20260507161601 7 248 0.0 0.0 0.00 0.76 0.00 23 1024.4
20260507160100 7 136 0.0 0.0 0.00 0.76 0.00 26 1024.7
20260507154551 5 108 0.0 0.0 0.00 0.76 0.00 28 1025.0
20260507153047 3 267 0.0 0.0 0.00 0.76 0.00 34 1025.1
20260507151545 1 267 0.0 0.0 0.00 0.76 0.00 45 1025.3
20260507150038 0 267 0.0 0.0 0.00 0.76 0.00 47 1025.4
20260507144536 -2 267 0.0 0.0 0.00 0.76 0.00 52 1025.7
20260507143034 -3 267 0.0 0.0 0.00 0.76 0.00 59 1025.8
20260507141536 -4 267 0.0 0.0 0.00 0.76 0.00 65 1025.7
20260507140031 -5 267 0.0 0.0 0.00 0.76 0.00 68 1025.7
20260507134530 -6 267 0.0 0.0 0.00 0.76 0.00 75 1025.6
20260507133028 -6 267 0.0 0.0 0.00 0.76 0.00 79 1025.5
20260507131535 -7 267 0.0 0.0 0.00 0.76 0.00 78 1025.3
20260507130026 -7 267 0.0 0.0 0.00 0.76 0.00 78 1025.3
20260507124526 -7 267 0.0 0.0 0.00 0.76 0.00 79 1025.2
20260507123027 -7 267 0.0 0.0 0.00 0.76 0.00 78 1025.1
20260507121522 -7 267 0.0 0.0 0.00 0.76 0.00 80 1025.0
20260507120021 -7 267 0.0 0.0 0.00 0.76 0.00 78 1025.0
20260507114518 -7 267 0.0 0.0 0.00 0.76 0.00 77 1024.8
20260507113016 -6 267 0.0 0.0 0.00 0.76 0.00 77 1024.6
20260507111515 -6 267 0.0 0.0 0.00 0.76 0.00 76 1024.5
20260507110015 -6 267 0.0 0.0 0.00 0.76 0.00 76 1024.1
20260507104511 -6 267 0.0 0.0 0.00 0.76 0.00 75 1023.9
20260507103010 -6 275 0.0 0.0 0.00 0.76 0.00 74 1023.9
20260507101510 -6 275 0.0 0.0 0.00 0.76 0.00 74 1023.9
20260507100013 -5 286 0.0 0.0 0.00 0.76 0.00 73 1023.5
20260507094505 -5 276 0.0 0.0 0.00 0.76 0.00 73 1023.4
20260507093002 -5 259 0.0 1.6 0.00 0.76 0.00 72 1023.4
20260507091606 -5 27 0.0 1.6 0.00 0.76 0.00 73 1023.2
20260507090113 -4 235 0.0 1.6 0.00 0.76 0.00 72 1022.9
20260507084559 -5 255 0.0 1.6 0.00 0.76 0.00 72 1023.0
20260507083101 -4 240 0.0 1.6 0.00 0.76 0.00 69 1022.9
20260507081557 -4 243 0.0 3.2 0.00 0.76 0.00 70 1022.9
20260507080051 -4 248 0.0 3.2 0.00 0.76 0.00 72 1023.0
20260507074548 -3 258 0.0 1.6 0.00 0.76 0.00 68 1023.1
20260507073057 -2 80 0.0 4.8 0.00 0.76 0.00 57 1022.8
20260507071543 -2 74 0.0 1.6 0.00 0.76 0.00 60 1022.5
20260507070105 -3 68 0.0 0.0 0.00 0.76 0.00 63 1022.6
20260507064543 -2 68 0.0 3.2 0.00 0.76 0.00 61 1022.4